QPF
0.26 0.22 0.16 0.15 0.12 0.08 0.09 0.08 0.07 0.06 0.04 0.02 0.03 0.04 0.03 0.03 0.03 0.02 0.04 0.04 0.03 0.02 0.04 0.06 0.05 0.04 0.04 0.04 0.03 0.03 0.04 0.04 0.03 0.03 0.04 0.06 0.06 0.06 0.07 0.08 0.08 0.06 0.03
0.20 0.18 0.16 0.14 0.11 0.08 0.07 0.07 0.06 0.07 0.05 0.05 0.04 0.02 0.04 0.04 0.03 0.03 0.05 0.05 0.04 0.04 0.04 0.05 0.06 0.05 0.06 0.06 0.07 0.07 0.09 0.09 0.07 0.06 0.05 0.07 0.08 0.07 0.09 0.07 0.07 0.06 0.04
0.19 0.17 0.15 0.13 0.12 0.09 0.07 0.06 0.06 0.06 0.05 0.05 0.04 0.03 0.04 0.04 0.04 0.05 0.07 0.08 0.07 0.07 0.05 0.05 0.06 0.07 0.08 0.08 0.08 0.08 0.09 0.09 0.07 0.07 0.08 0.08 0.11 0.11 0.10 0.07 0.06 0.05 0.03
0.16 0.20 0.17 0.13 0.09 0.06 0.06 0.08 0.08 0.08 0.09 0.08 0.09 0.09 0.07 0.07 0.07 0.06 0.06 0.06 0.07 0.06 0.05 0.04 0.05 0.05 0.07 0.09 0.11 0.10 0.09 0.08 0.07 0.07 0.07 0.08 0.10 0.10 0.08 0.05 0.05 0.05 0.03
0.09 0.12 0.12 0.10 0.07 0.07 0.06 0.06 0.08 0.11 0.15 0.14 0.10 0.09 0.08 0.09 0.10 0.07 0.06 0.05 0.05 0.06 0.06 0.05 0.06 0.04 0.04 0.04 0.07 0.10 0.10 0.09 0.07 0.06 0.06 0.07 0.07 0.07 0.06 0.05 0.04 0.04 0.03
0.07 0.07 0.06 0.06 0.06 0.07 0.08 0.07 0.09 0.12 0.14 0.15 0.10 0.09 0.09 0.06 0.06 0.08 0.07 0.05 0.03 0.03 0.04 0.07 0.08 0.06 0.06 0.04 0.05 0.06 0.08 0.11 0.11 0.10 0.08 0.07 0.07 0.06 0.05 0.04 0.03 0.03 0.03
0.04 0.05 0.05 0.07 0.06 0.09 0.09 0.07 0.11 0.15 0.15 0.16 0.18 0.16 0.12 0.09 0.10 0.09 0.07 0.05 0.04 0.04 0.06 0.08 0.10 0.09 0.08 0.08 0.06 0.05 0.06 0.09 0.12 0.14 0.14 0.12 0.10 0.09 0.07 0.06 0.04 0.02 0.02
0.02 0.04 0.07 0.07 0.08 0.09 0.11 0.11 0.12 0.11 0.10 0.14 0.21 0.20 0.16 0.13 0.12 0.09 0.09 0.08 0.06 0.06 0.07 0.09 0.12 0.12 0.12 0.11 0.08 0.07 0.07 0.09 0.10 0.11 0.11 0.11 0.10 0.10 0.10 0.09 0.07 0.06 0.03
0.02 0.03 0.03 0.04 0.06 0.07 0.10 0.11 0.10 0.11 0.11 0.12 0.16 0.21 0.21 0.17 0.15 0.14 0.14 0.11 0.08 0.08 0.08 0.07 0.08 0.10 0.10 0.12 0.12 0.09 0.07 0.07 0.09 0.12 0.11 0.12 0.12 0.12 0.11 0.09 0.07 0.06 0.05
0.01 0.02 0.03 0.04 0.05 0.05 0.09 0.07 0.09 0.12 0.14 0.14 0.13 0.15 0.18 0.17 0.15 0.14 0.14 0.14 0.14 0.09 0.07 0.06 0.07 0.10 0.14 0.16 0.11 0.06 0.05 0.06 0.08 0.09 0.10 0.10 0.11 0.15 0.16 0.16 0.13 0.10 0.07
0.02 0.02 0.05 0.06 0.07 0.07 0.08 0.07 0.10 0.10 0.12 0.16 0.15 0.17 0.19 0.18 0.18 0.16 0.17 0.17 0.17 0.09 0.05 0.05 0.07 0.09 0.10 0.12 0.11 0.06 0.05 0.05 0.05 0.06 0.07 0.06 0.07 0.09 0.12 0.14 0.17 0.18 0.15
0.03 0.03 0.04 0.07 0.07 0.08 0.07 0.06 0.07 0.08 0.11 0.16 0.14 0.13 0.15 0.16 0.16 0.17 0.18 0.20 0.18 0.13 0.08 0.07 0.08 0.09 0.09 0.11 0.07 0.06 0.05 0.04 0.04 0.04 0.04 0.04 0.04 0.05 0.06 0.07 0.11 0.17 0.21
0.04 0.03 0.04 0.06 0.06 0.06 0.07 0.07 0.07 0.08 0.08 0.08 0.08 0.10 0.12 0.10 0.11 0.12 0.14 0.16 0.17 0.13 0.12 0.10 0.09 0.10 0.08 0.09 0.07 0.06 0.05 0.05 0.04 0.04 0.04 0.03 0.02 0.02 0.03 0.04 0.07 0.10 0.16
0.04 0.03 0.03 0.04 0.04 0.06 0.06 0.07 0.07 0.07 0.07 0.06 0.06 0.09 0.10 0.10 0.10 0.11 0.11 0.13 0.14 0.14 0.15 0.13 0.11 0.10 0.11 0.12 0.10 0.08 0.06 0.06 0.05 0.05 0.04 0.02 0.02 0.02 0.02 0.03 0.04 0.05 0.08
0.03 0.03 0.03 0.04 0.04 0.05 0.06 0.06 0.05 0.06 0.08 0.06 0.07 0.08 0.09 0.11 0.10 0.11 0.11 0.12 0.12 0.13 0.17 0.15 0.13 0.12 0.12 0.11 0.09 0.09 0.09 0.06 0.06 0.05 0.04 0.03 0.04 0.04 0.03 0.03 0.03 0.04 0.04
0.04 0.04 0.04 0.05 0.05 0.06 0.05 0.05 0.04 0.05 0.07 0.07 0.08 0.10 0.10 0.10 0.10 0.11 0.12 0.12 0.12 0.12 0.15 0.15 0.12 0.11 0.09 0.07 0.05 0.08 0.07 0.04 0.04 0.03 0.03 0.03 0.03 0.03 0.03 0.02 0.02 0.02 0.02
0.04 0.04 0.05 0.06 0.06 0.06 0.06 0.06 0.05 0.06 0.06 0.07 0.07 0.09 0.09 0.09 0.09 0.09 0.11 0.10 0.10 0.11 0.12 0.12 0.11 0.09 0.07 0.07 0.06 0.06 0.04 0.02 0.02 0.02 0.02 0.02 0.02 0.01 0.01 0.01 0.01 0.02 0.02
0.03 0.04 0.04 0.05 0.05 0.06 0.06 0.05 0.05 0.06 0.07 0.07 0.08 0.10 0.11 0.12 0.11 0.09 0.10 0.09 0.08 0.08 0.09 0.10 0.10 0.08 0.07 0.05 0.04 0.05 0.04 0.03 0.02 0.03 0.03 0.02 0.01 0.01 0.01 0.01 0.01 0.02 0.01
0.03 0.03 0.04 0.04 0.06 0.07 0.06 0.07 0.07 0.08 0.07 0.07 0.08 0.11 0.13 0.13 0.13 0.11 0.09 0.07 0.05 0.06 0.08 0.08 0.08 0.09 0.07 0.04 0.04 0.04 0.04 0.05 0.04 0.04 0.04 0.03 0.02 0.02 0.02 0.02 0.02 0.02 0.01
0.02 0.03 0.04 0.05 0.06 0.06 0.06 0.07 0.09 0.08 0.08 0.07 0.07 0.07 0.08 0.08 0.09 0.10 0.10 0.09 0.09 0.09 0.10 0.10 0.10 0.10 0.07 0.04 0.04 0.04 0.05 0.05 0.05 0.04 0.04 0.03 0.03 0.03 0.02 0.02 0.01 0.01 0.01
0.02 0.03 0.05 0.05 0.07 0.07 0.06 0.07 0.07 0.05 0.05 0.05 0.06 0.06 0.07 0.08 0.07 0.07 0.07 0.08 0.10 0.12 0.10 0.10 0.10 0.08 0.07 0.05 0.04 0.04 0.04 0.06 0.06 0.04 0.04 0.03 0.02 0.02 0.01 0.01 0.01 0.01 0.01
0.03 0.04 0.04 0.04 0.04 0.03 0.03 0.03 0.03 0.04 0.05 0.06 0.06 0.06 0.07 0.07 0.07 0.05 0.04 0.04 0.04 0.05 0.05 0.06 0.06 0.07 0.06 0.06 0.05 0.05 0.05 0.05 0.04 0.04 0.04 0.05 0.04 0.03 0.01 0.00 0.00 0.00 0.00
0.03 0.03 0.03 0.03 0.02 0.03 0.03 0.02 0.02 0.03 0.05 0.06 0.07 0.07 0.05 0.04 0.05 0.04 0.04 0.04 0.04 0.04 0.03 0.04 0.05 0.06 0.07 0.05 0.05 0.04 0.04 0.04 0.04 0.05 0.06 0.05 0.05 0.04 0.02 0.01 0.01 0.01 0.01
0.03 0.03 0.03 0.02 0.02 0.03 0.04 0.03 0.05 0.06 0.07 0.06 0.05 0.04 0.04 0.04 0.04 0.05 0.06 0.05 0.04 0.03 0.03 0.03 0.03 0.04 0.05 0.05 0.04 0.04 0.05 0.06 0.07 0.07 0.07 0.06 0.05 0.05 0.04 0.03 0.03 0.02 0.02
0.03 0.03 0.03 0.03 0.03 0.04 0.04 0.05 0.05 0.05 0.04 0.03 0.03 0.03 0.04 0.05 0.05 0.05 0.06 0.07 0.05 0.04 0.05 0.04 0.03 0.03 0.03 0.03 0.03 0.04 0.05 0.07 0.07 0.06 0.07 0.08 0.07 0.08 0.09 0.07 0.05 0.04 0.03
0.04 0.04 0.04 0.04 0.03 0.03 0.02 0.02 0.01 0.01 0.02 0.02 0.03 0.02 0.03 0.06 0.05 0.05 0.05 0.06 0.06 0.06 0.05 0.04 0.03 0.03 0.02 0.03 0.03 0.04 0.05 0.08 0.09 0.09 0.08 0.07 0.07 0.08 0.09 0.09 0.06 0.05 0.05
MSLP
1015.72 1015.67 1015.46 1015.16 1014.83 1014.55 1014.38 1014.34 1014.43 1014.62 1014.86 1015.08 1015.27 1015.39 1015.44 1015.45 1015.43 1015.40 1015.39 1015.38 1015.38 1015.38 1015.37 1015.38 1015.43 1015.53 1015.73 1016.02 1016.41 1016.88 1017.38 1017.89 1018.36 1018.75 1019.07 1019.31 1019.50 1019.67 1019.82 1019.99 1020.19 1020.39 1020.61
1015.78 1015.69 1015.45 1015.13 1014.79 1014.51 1014.35 1014.34 1014.49 1014.76 1015.12 1015.49 1015.82 1016.09 1016.28 1016.37 1016.38 1016.33 1016.22 1016.07 1015.89 1015.70 1015.51 1015.36 1015.27 1015.29 1015.42 1015.67 1016.03 1016.48 1016.97 1017.47 1017.93 1018.34 1018.67 1018.95 1019.18 1019.39 1019.60 1019.81 1020.04 1020.28 1020.51
1015.85 1015.74 1015.50 1015.18 1014.86 1014.61 1014.48 1014.52 1014.73 1015.08 1015.53 1016.02 1016.50 1016.91 1017.21 1017.40 1017.46 1017.38 1017.20 1016.93 1016.59 1016.21 1015.85 1015.53 1015.30 1015.20 1015.24 1015.41 1015.71 1016.11 1016.55 1017.00 1017.43 1017.81 1018.15 1018.45 1018.73 1019.01 1019.29 1019.58 1019.88 1020.17 1020.44
1015.93 1015.81 1015.59 1015.31 1015.04 1014.84 1014.76 1014.84 1015.09 1015.49 1016.01 1016.59 1017.17 1017.69 1018.11 1018.39 1018.51 1018.45 1018.23 1017.87 1017.41 1016.89 1016.37 1015.91 1015.54 1015.32 1015.25 1015.32 1015.52 1015.82 1016.16 1016.53 1016.88 1017.22 1017.55 1017.87 1018.20 1018.55 1018.92 1019.31 1019.70 1020.06 1020.39
1016.00 1015.88 1015.70 1015.49 1015.29 1015.15 1015.12 1015.23 1015.49 1015.91 1016.45 1017.07 1017.72 1018.33 1018.85 1019.23 1019.43 1019.42 1019.22 1018.83 1018.30 1017.70 1017.07 1016.49 1016.01 1015.67 1015.49 1015.44 1015.52 1015.69 1015.91 1016.15 1016.41 1016.67 1016.96 1017.28 1017.65 1018.08 1018.55 1019.04 1019.52 1019.95 1020.32
1016.07 1015.97 1015.83 1015.69 1015.57 1015.49 1015.50 1015.62 1015.87 1016.26 1016.79 1017.41 1018.08 1018.75 1019.36 1019.84 1020.14 1020.23 1020.08 1019.73 1019.21 1018.58 1017.91 1017.27 1016.71 1016.28 1015.99 1015.83 1015.77 1015.80 1015.87 1015.97 1016.10 1016.27 1016.50 1016.80 1017.20 1017.68 1018.22 1018.80 1019.35 1019.84 1020.24
1016.14 1016.06 1015.98 1015.91 1015.86 1015.84 1015.88 1015.99 1016.20 1016.53 1016.99 1017.57 1018.24 1018.94 1019.62 1020.20 1020.62 1020.82 1020.79 1020.53 1020.08 1019.49 1018.84 1018.19 1017.60 1017.11 1016.74 1016.48 1016.31 1016.19 1016.12 1016.07 1016.07 1016.13 1016.28 1016.55 1016.94 1017.45 1018.03 1018.66 1019.25 1019.75 1020.13
1016.25 1016.19 1016.16 1016.16 1016.17 1016.19 1016.23 1016.31 1016.46 1016.71 1017.09 1017.60 1018.23 1018.93 1019.66 1020.33 1020.87 1021.21 1021.32 1021.20 1020.87 1020.38 1019.79 1019.19 1018.62 1018.12 1017.72 1017.39 1017.13 1016.90 1016.70 1016.52 1016.40 1016.35 1016.41 1016.62 1016.97 1017.46 1018.05 1018.67 1019.25 1019.72 1020.04
1016.41 1016.38 1016.39 1016.45 1016.50 1016.55 1016.58 1016.62 1016.69 1016.85 1017.12 1017.54 1018.11 1018.80 1019.55 1020.29 1020.94 1021.42 1021.68 1021.71 1021.52 1021.17 1020.70 1020.19 1019.69 1019.23 1018.84 1018.49 1018.18 1017.89 1017.60 1017.33 1017.10 1016.95 1016.92 1017.05 1017.35 1017.79 1018.32 1018.89 1019.40 1019.79 1020.01
1016.67 1016.65 1016.70 1016.79 1016.87 1016.93 1016.94 1016.93 1016.92 1016.98 1017.15 1017.48 1017.98 1018.63 1019.38 1020.16 1020.89 1021.47 1021.87 1022.05 1022.02 1021.81 1021.48 1021.10 1020.71 1020.34 1020.00 1019.69 1019.39 1019.08 1018.75 1018.42 1018.13 1017.90 1017.80 1017.85 1018.06 1018.41 1018.86 1019.33 1019.74 1020.01 1020.09
1017.01 1017.01 1017.07 1017.18 1017.27 1017.32 1017.31 1017.25 1017.18 1017.15 1017.23 1017.47 1017.89 1018.49 1019.21 1020.00 1020.76 1021.42 1021.92 1022.21 1022.32 1022.26 1022.08 1021.84 1021.58 1021.33 1021.10 1020.87 1020.63 1020.36 1020.04 1019.71 1019.38 1019.11 1018.94 1018.91 1019.03 1019.29 1019.63 1019.98 1020.25 1020.39 1020.34
1017.43 1017.43 1017.50 1017.60 1017.69 1017.72 1017.69 1017.59 1017.47 1017.37 1017.38 1017.54 1017.89 1018.41 1019.09 1019.84 1020.60 1021.29 1021.83 1022.21 1022.42 1022.49 1022.45 1022.36 1022.25 1022.15 1022.05 1021.94 1021.80 1021.60 1021.34 1021.04 1020.72 1020.43 1020.22 1020.13 1020.17 1020.32 1020.55 1020.78 1020.93 1020.94 1020.76
1017.88 1017.88 1017.94 1018.03 1018.10 1018.11 1018.06 1017.93 1017.78 1017.64 1017.60 1017.70 1017.97 1018.42 1019.02 1019.72 1020.43 1021.10 1021.65 1022.07 1022.35 1022.52 1022.61 1022.65 1022.69 1022.74 1022.79 1022.81 1022.79 1022.70 1022.53 1022.28 1022.00 1021.72 1021.50 1021.37 1021.34 1021.41 1021.54 1021.66 1021.71 1021.63 1021.37
1018.33 1018.32 1018.36 1018.42 1018.47 1018.47 1018.40 1018.27 1018.10 1017.95 1017.88 1017.94 1018.15 1018.52 1019.04 1019.64 1020.28 1020.89 1021.41 1021.84 1022.16 1022.39 1022.58 1022.75 1022.92 1023.11 1023.29 1023.45 1023.56 1023.58 1023.50 1023.33 1023.11 1022.86 1022.65 1022.50 1022.43 1022.44 1022.50 1022.56 1022.54 1022.40 1022.11
1018.74 1018.71 1018.73 1018.77 1018.79 1018.79 1018.72 1018.60 1018.44 1018.30 1018.22 1018.25 1018.41 1018.71 1019.13 1019.63 1020.18 1020.70 1021.17 1021.57 1021.90 1022.18 1022.43 1022.70 1022.98 1023.28 1023.59 1023.86 1024.07 1024.19 1024.21 1024.12 1023.96 1023.76 1023.57 1023.43 1023.35 1023.34 1023.36 1023.39 1023.35 1023.21 1022.93
1019.09 1019.05 1019.05 1019.07 1019.08 1019.08 1019.03 1018.93 1018.81 1018.69 1018.62 1018.63 1018.75 1018.98 1019.31 1019.71 1020.15 1020.58 1020.98 1021.34 1021.65 1021.95 1022.26 1022.58 1022.94 1023.33 1023.71 1024.07 1024.36 1024.55 1024.64 1024.62 1024.52 1024.38 1024.23 1024.11 1024.05 1024.05 1024.08 1024.10 1024.08 1023.98 1023.75
1019.39 1019.35 1019.33 1019.35 1019.37 1019.38 1019.36 1019.30 1019.22 1019.14 1019.09 1019.10 1019.19 1019.36 1019.60 1019.91 1020.24 1020.57 1020.90 1021.20 1021.50 1021.79 1022.12 1022.48 1022.87 1023.30 1023.73 1024.12 1024.45 1024.69 1024.82 1024.86 1024.81 1024.72 1024.62 1024.55 1024.53 1024.56 1024.62 1024.68 1024.70 1024.66 1024.52
1019.67 1019.63 1019.63 1019.65 1019.69 1019.73 1019.75 1019.74 1019.71 1019.66 1019.64 1019.65 1019.71 1019.83 1020.00 1020.21 1020.45 1020.70 1020.95 1021.20 1021.47 1021.75 1022.07 1022.43 1022.83 1023.26 1023.68 1024.08 1024.41 1024.66 1024.82 1024.88 1024.88 1024.84 1024.80 1024.79 1024.82 1024.90 1025.00 1025.11 1025.20 1025.23 1025.18
1019.95 1019.94 1019.96 1020.01 1020.08 1020.15 1020.21 1020.25 1020.26 1020.25 1020.25 1020.26 1020.30 1020.37 1020.48 1020.62 1020.78 1020.96 1021.15 1021.35 1021.57 1021.83 1022.12 1022.46 1022.83 1023.23 1023.62 1023.98 1024.29 1024.52 1024.68 1024.76 1024.80 1024.81 1024.83 1024.88 1024.97 1025.11 1025.27 1025.43 1025.57 1025.66 1025.69
1020.25 1020.29 1020.35 1020.44 1020.54 1020.65 1020.74 1020.81 1020.85 1020.88 1020.89 1020.90 1020.91 1020.95 1021.01 1021.09 1021.19 1021.31 1021.45 1021.60 1021.79 1022.01 1022.27 1022.56 1022.89 1023.22 1023.55 1023.86 1024.11 1024.32 1024.46 1024.56 1024.63 1024.69 1024.77 1024.89 1025.04 1025.22 1025.43 1025.63 1025.81 1025.95 1026.04
1020.58 1020.67 1020.77 1020.90 1021.03 1021.16 1021.28 1021.37 1021.44 1021.48 1021.50 1021.50 1021.51 1021.52 1021.54 1021.58 1021.64 1021.72 1021.81 1021.94 1022.08 1022.26 1022.47 1022.71 1022.97 1023.23 1023.49 1023.73 1023.93 1024.09 1024.23 1024.33 1024.43 1024.54 1024.68 1024.84 1025.05 1025.27 1025.51 1025.74 1025.95 1026.11 1026.23
1020.91 1021.04 1021.19 1021.34 1021.49 1021.64 1021.77 1021.87 1021.94 1021.99 1022.01 1022.01 1022.01 1022.01 1022.01 1022.03 1022.07 1022.12 1022.19 1022.29 1022.41 1022.54 1022.70 1022.88 1023.07 1023.26 1023.44 1023.60 1023.75 1023.88 1024.00 1024.11 1024.24 1024.39 1024.57 1024.78 1025.02 1025.28 1025.53 1025.77 1025.98 1026.14 1026.27
1021.20 1021.37 1021.54 1021.70 1021.86 1022.00 1022.13 1022.23 1022.30 1022.34 1022.37 1022.38 1022.38 1022.38 1022.39 1022.41 1022.44 1022.49 1022.55 1022.63 1022.72 1022.82 1022.93 1023.05 1023.17 1023.28 1023.40 1023.50 1023.60 1023.70 1023.81 1023.93 1024.08 1024.26 1024.47 1024.71 1024.97 1025.24 1025.49 1025.71 1025.90 1026.05 1026.16
1021.39 1021.58 1021.75 1021.91 1022.06 1022.19 1022.31 1022.40 1022.47 1022.52 1022.56 1022.58 1022.61 1022.63 1022.66 1022.70 1022.74 1022.80 1022.86 1022.92 1022.99 1023.07 1023.13 1023.20 1023.26 1023.32 1023.37 1023.43 1023.49 1023.57 1023.67 1023.80 1023.96 1024.16 1024.39 1024.64 1024.90 1025.15 1025.38 1025.57 1025.73 1025.85 1025.94
1021.46 1021.64 1021.81 1021.95 1022.08 1022.19 1022.30 1022.39 1022.46 1022.53 1022.59 1022.65 1022.71 1022.77 1022.83 1022.90 1022.97 1023.04 1023.11 1023.17 1023.22 1023.27 1023.31 1023.33 1023.35 1023.35 1023.37 1023.39 1023.42 1023.49 1023.58 1023.71 1023.88 1024.08 1024.31 1024.55 1024.79 1025.01 1025.21 1025.36 1025.48 1025.57 1025.63
1021.38 1021.55 1021.69 1021.82 1021.93 1022.03 1022.14 1022.23 1022.33 1022.43 1022.52 1022.62 1022.73 1022.83 1022.93 1023.03 1023.13 1023.22 1023.29 1023.35 1023.40 1023.42 1023.43 1023.42 1023.41 1023.39 1023.37 1023.37 1023.39 1023.44 1023.53 1023.66 1023.82 1024.01 1024.23 1024.44 1024.65 1024.83 1024.98 1025.10 1025.18 1025.24 1025.27
Thickness
5769 5768 5767 5765 5764 5763 5763 5762 5761 5761 5761 5761 5760 5760 5759 5758 5756 5753 5750 5748 5747 5746 5744 5742 5740 5738 5737 5736 5734 5732 5730 5729 5728 5726 5725 5723 5722 5721 5719 5718 5716 5715 5714
5768 5767 5766 5765 5764 5763 5763 5762 5761 5760 5760 5760 5759 5759 5758 5757 5755 5753 5750 5747 5746 5745 5744 5742 5740 5738 5737 5735 5733 5731 5730 5728 5727 5726 5724 5722 5721 5720 5718 5717 5715 5714 5713
5767 5766 5765 5764 5764 5764 5763 5762 5761 5760 5759 5759 5758 5758 5756 5755 5754 5752 5750 5748 5746 5744 5743 5742 5740 5738 5736 5735 5733 5731 5730 5728 5727 5725 5723 5721 5720 5719 5717 5716 5714 5713 5712
5768 5766 5765 5764 5764 5764 5763 5761 5760 5759 5757 5756 5756 5756 5755 5754 5752 5751 5750 5748 5747 5745 5743 5741 5740 5738 5736 5735 5733 5731 5730 5728 5726 5725 5723 5721 5719 5718 5716 5715 5713 5712 5711
5768 5767 5765 5765 5764 5764 5763 5762 5760 5758 5755 5754 5754 5754 5754 5753 5751 5751 5749 5748 5747 5746 5744 5742 5740 5738 5736 5735 5733 5732 5730 5728 5726 5724 5722 5720 5718 5717 5715 5714 5712 5711 5710
5768 5767 5766 5765 5764 5762 5760 5760 5757 5756 5755 5753 5753 5753 5752 5752 5751 5751 5749 5748 5748 5746 5745 5743 5740 5737 5736 5734 5733 5731 5730 5728 5726 5724 5722 5720 5718 5717 5715 5713 5712 5710 5709
5769 5767 5766 5764 5763 5761 5759 5758 5756 5754 5752 5753 5749 5747 5749 5751 5750 5751 5750 5748 5748 5746 5744 5742 5740 5738 5736 5734 5732 5731 5729 5728 5726 5724 5722 5720 5718 5716 5715 5713 5712 5710 5708
5769 5768 5765 5763 5762 5760 5758 5757 5756 5752 5752 5753 5747 5741 5738 5740 5744 5748 5747 5746 5747 5746 5744 5742 5739 5737 5736 5733 5731 5729 5728 5727 5725 5723 5721 5719 5717 5715 5713 5712 5711 5709 5707
5770 5768 5766 5764 5762 5760 5757 5757 5755 5753 5749 5751 5751 5744 5737 5732 5736 5741 5743 5744 5743 5743 5742 5740 5738 5736 5734 5732 5730 5727 5726 5725 5723 5721 5719 5717 5716 5714 5712 5711 5710 5708 5706
5770 5768 5766 5764 5762 5760 5758 5757 5757 5755 5751 5748 5750 5750 5748 5744 5735 5731 5736 5739 5739 5738 5739 5738 5736 5734 5732 5729 5727 5725 5723 5722 5720 5719 5717 5715 5713 5712 5710 5709 5708 5707 5705
5770 5769 5766 5764 5761 5759 5758 5757 5756 5754 5753 5750 5748 5747 5746 5745 5743 5734 5728 5731 5733 5735 5735 5734 5733 5731 5729 5726 5724 5722 5720 5719 5717 5715 5713 5712 5710 5709 5707 5706 5705 5704 5703
5771 5769 5767 5763 5761 5759 5757 5756 5755 5753 5752 5751 5749 5747 5744 5741 5739 5736 5730 5727 5727 5729 5731 5731 5730 5728 5726 5723 5721 5719 5718 5716 5714 5712 5710 5708 5706 5705 5704 5702 5701 5701 5700
5770 5768 5767 5763 5761 5758 5756 5755 5753 5751 5750 5749 5747 5746 5746 5744 5743 5739 5732 5727 5725 5725 5726 5726 5726 5725 5723 5720 5718 5716 5714 5712 5709 5707 5705 5703 5702 5701 5699 5698 5697 5696 5695
5771 5769 5766 5763 5760 5758 5755 5753 5751 5750 5749 5747 5746 5745 5744 5743 5742 5738 5733 5727 5720 5719 5719 5719 5722 5722 5719 5717 5714 5712 5709 5707 5705 5703 5701 5699 5697 5695 5694 5692 5691 5690 5689
5772 5769 5765 5762 5759 5756 5754 5751 5749 5747 5746 5744 5742 5742 5741 5740 5739 5738 5735 5731 5722 5713 5711 5714 5714 5715 5715 5713 5710 5708 5705 5702 5700 5698 5696 5694 5692 5690 5688 5686 5685 5684 5683
5770 5767 5764 5760 5757 5755 5752 5750 5747 5745 5743 5741 5739 5737 5736 5736 5736 5735 5733 5731 5727 5719 5711 5711 5710 5711 5711 5708 5705 5703 5701 5698 5695 5692 5690 5688 5686 5684 5682 5680 5678 5677 5676
5768 5764 5761 5758 5755 5752 5750 5747 5744 5742 5739 5737 5736 5734 5732 5732 5731 5730 5730 5727 5724 5719 5711 5708 5708 5707 5706 5704 5701 5699 5696 5693 5690 5687 5684 5682 5679 5677 5675 5673 5671 5670 5669
5766 5762 5759 5755 5752 5749 5746 5743 5741 5738 5735 5732 5730 5729 5728 5727 5726 5724 5723 5721 5719 5716 5710 5704 5702 5701 5699 5698 5696 5694 5692 5689 5685 5682 5679 5676 5673 5670 5668 5666 5664 5662 5661
5763 5759 5756 5752 5748 5746 5743 5740 5738 5735 5732 5729 5727 5724 5723 5721 5719 5718 5716 5715 5713 5712 5708 5702 5698 5696 5693 5692 5690 5689 5687 5683 5681 5676 5673 5669 5667 5664 5662 5660 5657 5655 5653
5759 5755 5752 5748 5745 5742 5740 5737 5734 5730 5728 5725 5723 5720 5718 5715 5713 5712 5711 5708 5706 5703 5701 5697 5692 5689 5686 5685 5683 5680 5677 5676 5674 5671 5667 5663 5660 5658 5655 5653 5651 5648 5646
5755 5751 5747 5744 5741 5738 5734 5731 5729 5726 5723 5720 5717 5715 5712 5710 5708 5706 5705 5701 5699 5696 5693 5690 5686 5682 5679 5676 5674 5674 5670 5668 5666 5664 5660 5658 5654 5651 5648 5646 5643 5641 5638
5750 5746 5742 5738 5735 5732 5728 5726 5724 5722 5718 5714 5711 5709 5707 5704 5702 5699 5697 5696 5694 5690 5687 5683 5680 5675 5671 5670 5668 5667 5663 5660 5657 5658 5655 5651 5648 5645 5642 5639 5636 5634 5631
5744 5740 5737 5732 5728 5724 5722 5720 5718 5716 5713 5709 5706 5703 5702 5699 5696 5694 5691 5688 5686 5684 5682 5678 5674 5670 5667 5666 5663 5660 5658 5656 5652 5651 5648 5644 5642 5638 5636 5633 5630 5627 5624
5738 5734 5731 5727 5723 5718 5715 5713 5711 5710 5707 5704 5701 5698 5694 5692 5690 5687 5685 5681 5678 5675 5674 5672 5670 5667 5664 5661 5659 5656 5653 5651 5648 5645 5642 5637 5635 5632 5630 5626 5624 5621 5617
5732 5729 5725 5721 5717 5712 5708 5707 5704 5704 5701 5698 5695 5692 5689 5685 5682 5680 5677 5674 5670 5668 5666 5664 5662 5660 5658 5655 5653 5650 5647 5643 5639 5637 5636 5632 5629 5626 5622 5619 5616 5613 5610
5726 5723 5719 5716 5712 5707 5703 5701 5699 5698 5695 5692 5688 5685 5682 5679 5675 5673 5670 5667 5663 5661 5660 5658 5655 5653 5651 5649 5646 5643 5641 5637 5634 5630 5629 5625 5623 5620 5615 5613 5610 5606 5603